If you wish to contribute or participate in the discussions about articles you are invited to join SKYbrary as a registered user

 Actions

Accra/Kotoka

From SKYbrary Wiki

DGAA
Airport
ICAO: DGAA
Summary
Name Accra/Kotoka
Region Africa
Territory Ghana GH.gif
Location Accra
Serving
Coordinates 5° 36' 17.34" N, 0° 10' 2.42" W
Runways
Designator Length Width Surface ROPS
3/21 3403 m11,164.698 ft
61 m200.131 ft
ASP yes/yes


METAR
Observation DGAA 240600Z 27007KT 9999 BKN008 26/25 Q1009 NOSIG
Station Accra
Date/Time 24 March 2019 06:00:00
Wind direction 270°
Wind speed 07 kts
Lowest cloud amount broken clouds
Temperature 26°C
Dew point 25°C
Humidity 94%
QNH 1009 hPa
Weather condition n/a


Accra/Kotoka Airport

ICAO: DGAA IATA: ACC

Description

International airport serving the capital of Ghana.

Climatology

Tropical Savanna climate (Köppen climate classification Aw)

Maps

Terrain

Loading map...

Airport Layout

Loading map...


Accidents & Serious Incidents at or in vicinity of DGAA

None on SKYbrary